CAPE
0 0 0 0 0 0 0 0 0 0 0 0 0 0 0 0 0 0 0 0 0 0 0 0 0 0 0 0 0 0 0 0 0 0 0 0 0 0 0 0 0 0 0 0 0
0 0 0 0 0 0 0 0 0 0 0 0 0 0 0 0 0 0 0 0 0 0 0 0 0 0 0 0 0 0 0 0 0 0 0 0 0 0 0 0 0 0 0 0 0
1 0 0 0 0 0 0 0 0 0 0 0 0 0 0 0 0 0 0 0 0 0 0 0 0 0 0 0 0 0 0 0 0 0 0 0 0 0 0 0 0 0 0 0 0
3 2 0 0 0 0 0 0 0 0 0 0 0 0 0 0 0 0 0 0 0 0 0 0 0 0 0 0 0 0 0 0 0 0 0 0 0 0 0 0 0 0 0 0 0
0 2 1 0 0 0 0 0 0 0 0 0 0 0 0 0 0 0 0 0 0 0 0 0 0 0 0 0 0 0 0 0 0 0 0 0 0 0 0 0 0 0 0 0 0
2 0 2 0 0 0 0 0 0 0 0 0 0 0 0 0 0 0 0 0 0 0 0 0 0 0 0 0 0 0 0 0 0 0 0 0 0 0 0 0 0 0 0 0 0
0 0 0 3 0 0 0 0 0 0 0 0 0 0 0 0 0 0 0 0 0 0 0 0 0 0 0 0 0 0 0 0 0 0 0 0 0 0 0 0 0 0 0 0 0
2 0 0 3 2 0 0 0 0 0 0 0 0 0 0 0 0 0 0 0 0 0 0 0 0 0 0 0 0 0 0 0 0 0 0 0 0 0 0 0 0 0 0 0 0
6 2 1 1 4 1 1 0 0 0 0 0 0 0 0 0 0 0 0 0 0 0 0 0 0 0 0 0 0 0 0 0 0 0 0 0 0 0 0 0 0 0 0 0 0
0 0 3 1 2 1 0 4 0 0 0 0 0 0 0 0 0 0 0 0 0 0 0 0 0 0 0 0 0 0 0 0 0 0 0 0 0 0 0 0 0 0 0 0 0
0 0 2 1 0 4 4 0 0 0 0 0 0 0 0 0 0 0 0 0 0 0 0 0 0 0 0 0 0 0 0 0 0 0 0 0 0 0 0 0 0 0 0 0 0
0 0 2 0 1 10 0 0 0 0 0 0 0 0 0 0 0 0 0 0 0 0 0 0 0 0 0 0 0 0 0 0 0 0 0 0 0 0 0 0 0 0 0 0 0
0 0 0 0 0 3 0 0 0 0 0 0 0 0 0 0 0 0 0 0 0 0 0 0 0 0 0 0 0 0 0 0 0 0 0 0 0 0 0 0 0 0 0 0 0
9 0 0 2 0 10 1 0 0 0 1 0 0 0 0 0 0 0 0 0 0 0 0 0 0 0 0 0 0 0 0 0 0 0 0 0 0 0 0 0 0 0 0 0 0
37 0 0 2 0 6 4 0 0 6 4 0 0 0 0 0 0 0 0 0 0 0 0 0 0 0 0 0 0 0 0 0 0 0 0 0 0 0 0 0 0 0 0 0 0
27 5 0 0 10 0 0 2 10 39 1 0 0 0 0 0 0 0 0 0 0 0 0 0 0 0 0 0 0 0 0 0 0 0 0 0 0 0 0 0 0 0 0 0 0
53 44 0 0 0 2 0 4 33 17 0 0 0 0 0 0 0 0 0 0 0 0 0 0 0 0 0 0 0 0 0 0 0 0 0 0 0 0 0 0 0 0 0 0 0
63 57 4 0 0 0 2 13 0 0 0 0 0 0 0 0 0 0 0 0 0 0 0 0 0 0 0 0 0 0 0 0 0 0 0 0 0 0 0 0 0 0 0 0 0
72 48 18 0 0 0 1 0 1 0 0 0 0 0 1 0 0 0 0 0 0 0 0 0 0 0 0 0 0 0 0 0 0 0 0 0 0 0 0 0 0 0 0 0 0
31 38 30 0 0 6 0 0 0 0 0 0 0 0 0 0 0 0 0 0 0 0 0 0 0 0 0 0 0 0 0 0 0 0 0 0 0 0 0 0 0 0 0 0 0
61 26 0 0 5 4 0 0 0 0 0 0 0 0 0 0 0 0 0 0 0 0 0 0 0 0 0 0 0 0 0 0 0 0 0 0 0 0 0 0 0 0 0 0 0
43 3 0 15 1 0 0 0 0 0 2 0 0 0 0 0 0 0 0 0 0 0 0 0 0 0 0 0 0 0 0 0 0 0 0 0 0 0 0 0 0 0 0 0 0
8 0 7 21 0 0 0 2 1 1 1 0 0 0 0 0 0 0 0 0 0 0 0 0 0 0 0 0 0 0 0 0 0 0 0 0 0 0 0 0 0 0 0 0 0
0 4 10 24 0 0 0 0 3 11 0 0 0 0 0 0 0 0 0 0 0 0 0 0 0 0 0 0 0 0 0 0 0 0 0 0 0 0 0 0 0 0 0 0 0
0 0 1 15 0 0 0 0 0 6 27 14 0 0 0 0 0 0 0 0 0 0 0 0 0 0 0 0 0 0 0 0 0 0 0 0 0 0 0 0 0 0 0 0 0
0 3 8 32 0 0 0 0 0 0 13 0 3 0 0 0 0 0 0 0 0 0 0 0 0 0 0 0 0 0 0 0 0 0 0 0 0 0 0 0 0 0 0 0 0
0 0 5 33 0 0 0 0 0 0 0 0 0 0 0 0 0 0 0 0 0 0 0 0 0 0 0 0 0 0 0 0 0 0 0 0 0 0 0 0 0 0 0 0 0
CIN
0 0 0 0 0 0 0 0 0 0 0 0 0 0 0 0 0 0 0 0 0 0 0 0 0 0 0 0 0 0 0 0 0 0 0 0 0 0 0 0 0 0 0 0 0
0 0 0 0 0 0 0 0 0 0 0 0 0 0 0 0 0 0 0 0 0 0 0 0 0 0 0 0 0 0 0 0 0 0 0 0 0 0 0 0 0 0 0 0 0
0 0 0 0 0 0 0 0 0 0 0 0 0 0 0 0 0 0 0 0 0 0 0 0 0 0 0 0 0 0 0 0 0 0 0 0 0 0 0 0 0 0 0 0 0
0 0 0 0 0 0 0 0 0 0 0 0 0 0 0 0 0 0 0 0 0 0 0 0 0 0 0 0 0 0 0 0 0 0 0 0 0 0 0 0 0 0 0 0 0
0 0 0 0 0 0 0 0 0 0 0 0 0 0 0 0 0 0 0 0 0 0 0 0 0 0 0 0 0 0 0 0 0 0 0 0 0 0 0 0 0 0 0 0 0
0 0 0 0 0 0 0 0 0 0 0 0 0 0 0 0 0 0 0 0 0 0 0 0 0 0 0 0 0 0 0 0 0 0 0 0 0 0 0 0 0 0 0 0 0
0 0 0 0 0 0 0 0 0 0 0 0 0 0 0 0 0 0 0 0 0 0 0 0 0 0 0 0 0 0 0 0 0 0 0 0 0 0 0 0 0 0 0 0 0
0 0 0 0 0 0 0 0 0 0 0 0 0 0 0 0 0 0 0 0 0 0 0 0 0 0 0 0 0 0 0 0 0 0 0 0 0 0 0 0 0 0 0 0 0
0 0 0 0 0 0 0 0 0 0 0 0 0 0 0 0 0 0 0 0 0 0 0 0 0 0 0 0 0 0 0 0 0 0 0 0 0 0 0 0 0 0 0 0 0
0 0 0 0 0 0 0 0 0 0 0 0 0 0 0 0 0 0 0 0 0 0 0 0 0 0 0 0 0 0 0 0 0 0 0 0 0 0 0 0 0 0 0 0 0
0 0 0 0 0 0 0 0 0 0 0 0 0 0 0 0 0 0 0 0 0 0 0 0 0 0 0 0 0 0 0 0 0 0 0 0 0 0 0 0 0 0 0 0 0
0 0 -1 0 0 -2 0 0 0 0 0 0 0 0 0 0 0 0 0 0 0 0 0 0 0 0 0 0 0 0 0 0 0 0 0 0 0 0 0 0 0 0 0 0 0
0 0 0 0 0 -9 -2 0 0 0 -1 0 0 0 0 0 0 0 0 0 0 0 0 0 0 0 0 0 0 0 0 0 0 0 0 0 0 0 0 0 0 0 0 0 0
0 0 0 0 0 -1 -1 0 0 0 0 0 0 0 0 0 0 0 0 0 0 0 0 0 0 0 0 0 0 0 0 0 0 0 0 0 0 0 0 0 0 0 0 0 0
-2 0 0 0 0 -3 -1 0 0 -11 -71 0 0 0 0 0 0 0 0 0 0 0 0 0 0 0 0 0 0 0 0 0 0 0 0 0 0 0 0 0 0 0 0 0 0
-3 -1 0 0 0 0 0 -15 -9 -9 -24 0 0 0 0 0 0 0 0 0 0 0 0 0 0 0 0 0 0 0 0 0 0 0 0 0 0 0 0 0 0 0 0 0 0
0 -1 0 0 0 -36 0 -16 -2 -1 0 0 0 0 0 0 0 0 0 0 0 0 0 0 0 0 0 0 0 0 0 0 0 0 0 0 0 0 0 0 0 0 0 0 0
0 -1 -7 0 0 0 0 0 -1 0 0 0 0 0 0 0 0 0 0 0 0 0 0 0 0 0 0 0 0 0 0 0 0 0 0 0 0 0 0 0 0 0 0 0 0
0 -1 -13 0 0 0 0 0 -25 0 0 0 0 0 0 0 0 0 0 0 0 0 0 0 0 0 0 0 0 0 0 0 0 0 0 0 0 0 0 0 0 0 0 0 0
-1 -1 0 0 0 -3 -3 0 0 0 0 0 0 0 0 0 0 0 0 0 0 0 0 0 0 0 0 0 0 0 0 0 0 0 0 0 0 0 0 0 0 0 0 0 0
0 -3 -1 0 -3 0 0 0 0 0 -2 0 0 0 0 0 0 0 0 0 0 0 0 0 0 0 0 0 0 0 0 0 0 0 0 0 0 0 0 0 0 0 0 0 0
0 0 0 0 0 0 0 0 0 0 -21 0 0 0 0 0 0 0 0 0 0 0 0 0 0 0 0 0 0 0 0 0 0 0 0 0 0 0 0 0 0 0 0 0 0
-4 -1 -1 -2 0 0 0 -1 0 -1 0 0 0 0 0 0 0 0 0 0 0 0 0 0 0 0 0 0 0 0 0 0 0 0 0 0 0 0 0 0 0 0 0 0 0
-1 -19 -29 -4 0 0 0 0 0 -5 0 0 0 0 0 0 0 0 0 0 0 0 0 0 0 0 0 0 0 0 0 0 0 0 0 0 0 0 0 0 0 0 0 0 0
0 -1 -4 -3 0 0 0 0 0 0 -3 -2 0 0 0 0 0 0 0 0 0 0 0 0 0 0 0 0 0 0 0 0 0 0 0 0 0 0 0 0 0 0 0 0 0
0 -1 -21 -16 0 0 0 0 0 0 -1 0 -1 0 0 0 0 0 0 0 0 0 0 0 0 0 0 0 0 0 0 0 0 0 0 0 0 0 0 0 0 0 0 0 0
0 -8 -2 -47 -17 0 0 0 0 0 0 -2 0 0 0 0 0 0 0 0 0 0 0 0 0 0 0 0 0 0 0 0 0 0 0 0 0 0 0 0 0 0 0 0 0
Wind_Speed
25 24 24 24 23 23 23 24 23 22 23 23 23 23 23 23 25 22 24 20 17 16 15 14 13 13 15 16 16 16 15 14 14 16 13 15 14 10 9 8 8 8 8 9 12
26 25 25 24 24 24 23 24 24 23 23 23 23 23 23 23 23 27 23 17 17 15 14 12 12 12 15 17 18 16 13 13 19 17 14 17 15 7 8 6 6 5 10 11 11
30 27 26 26 25 24 24 24 24 24 23 23 23 23 23 22 24 23 16 16 15 14 15 16 17 13 18 16 17 17 16 17 19 18 20 22 23 8 8 4 5 12 10 9 9
29 32 28 26 26 25 24 25 24 24 23 23 23 23 22 21 25 18 14 13 13 14 17 15 15 17 18 18 18 20 23 25 21 21 23 25 23 2 2 2 5 4 5 6 6
30 31 26 30 27 25 26 24 25 24 24 23 23 23 21 24 26 16 12 12 13 14 15 15 15 18 20 19 21 20 24 24 24 24 24 21 5 1 11 9 5 4 2 5 5
31 31 32 27 29 26 26 25 24 24 24 24 23 22 23 29 18 14 14 13 15 15 17 16 17 18 23 22 20 21 23 27 26 24 20 21 23 21 15 12 10 11 9 4 4
31 29 33 26 23 26 26 25 24 24 24 24 24 22 26 29 19 14 14 16 15 16 17 19 18 19 20 21 23 24 27 30 27 21 17 20 24 13 7 9 12 12 11 9 5
31 31 32 30 20 22 25 25 23 24 24 24 24 23 30 21 20 16 16 17 17 18 18 18 18 19 20 20 21 21 20 22 18 15 17 18 18 22 17 14 15 14 11 8 6
33 32 32 31 24 21 20 23 22 23 23 23 22 24 30 19 22 20 17 17 15 17 16 15 17 20 21 23 23 22 24 21 19 16 16 15 18 18 16 17 18 18 13 9 6
34 33 33 31 30 27 25 18 21 23 22 21 26 27 28 25 20 18 16 15 18 15 17 18 20 22 22 21 28 25 25 24 23 17 17 19 23 28 32 25 14 15 14 12 9
34 32 33 32 30 22 23 19 22 27 28 32 26 30 22 18 16 19 17 16 17 20 25 23 27 29 25 23 20 22 23 24 20 20 23 24 31 33 31 25 18 17 14 12 13
33 33 32 32 30 23 22 36 33 22 35 33 39 34 23 21 22 21 17 22 23 27 22 25 35 28 24 24 28 31 29 28 27 23 25 29 35 37 32 22 19 14 9 10 11
34 32 31 31 31 29 25 34 25 25 31 35 32 36 30 25 28 25 20 23 27 28 27 30 27 24 25 24 25 27 27 27 27 25 27 30 32 23 20 17 18 15 11 10 8
36 32 30 29 31 29 30 21 20 23 38 37 33 36 33 27 33 23 23 23 27 30 28 32 28 23 24 27 24 29 25 24 26 27 30 22 30 26 26 21 16 15 12 12 9
37 33 30 27 30 29 24 17 16 22 47 28 27 22 25 32 26 29 24 27 30 26 27 31 27 27 28 27 23 27 22 21 23 25 27 25 28 25 20 21 20 16 13 11 8
39 34 30 31 33 29 19 17 18 40 48 32 25 26 26 33 33 26 29 25 23 26 26 28 23 24 25 21 19 15 17 19 20 24 33 27 25 29 23 22 20 16 13 11 7
41 36 32 29 36 27 22 22 42 55 34 36 32 25 26 31 33 32 32 33 34 35 36 30 29 25 20 21 19 20 20 29 31 31 34 26 25 29 22 21 20 17 13 11 6
42 39 36 35 32 27 29 42 54 41 44 33 33 26 29 27 33 34 35 38 36 33 33 37 39 28 25 25 26 25 26 28 34 33 31 25 28 26 22 20 17 17 12 11 8
40 41 40 37 31 32 40 53 51 49 46 41 30 31 31 31 28 33 38 40 38 34 36 36 38 26 25 24 21 26 30 23 26 26 29 27 26 22 19 18 18 16 12 12 8
42 43 48 34 30 34 51 64 35 35 27 37 49 41 40 32 29 29 31 36 39 37 31 29 34 31 28 25 26 26 21 27 27 34 36 31 30 26 20 19 17 17 16 13 10
40 46 42 34 30 43 66 58 56 38 32 36 45 41 40 38 35 34 32 31 31 34 32 28 30 29 26 32 30 27 28 27 25 28 33 34 31 23 15 13 12 14 15 15 14
43 55 33 31 48 48 60 60 51 53 40 35 36 37 43 37 37 36 39 32 28 26 36 30 29 34 31 26 27 28 30 27 31 32 31 31 32 14 10 10 12 15 16 16 15
42 45 31 39 57 54 52 52 54 53 44 41 43 39 34 39 40 36 33 28 22 22 24 24 29 33 33 33 29 32 30 29 28 28 31 31 28 15 12 13 13 15 16 16 16
37 47 38 48 46 51 54 61 55 47 53 40 42 33 35 39 35 35 32 27 23 22 23 23 27 32 37 33 26 32 28 28 29 32 29 29 23 15 13 12 14 16 16 17 18
39 47 34 54 52 52 54 58 64 54 49 43 43 37 40 42 38 37 33 27 24 22 23 25 32 30 27 24 23 25 26 24 25 25 25 25 21 17 15 15 16 17 19 19 21
36 42 43 37 47 52 56 60 63 63 46 52 54 41 39 36 41 41 34 32 30 24 24 23 27 26 27 23 22 24 22 23 26 26 26 22 24 19 14 12 15 18 19 21 22
40 37 38 43 46 46 57 56 57 57 57 44 51 50 49 44 33 30 34 34 33 32 29 27 24 28 34 23 23 33 27 22 23 24 23 27 22 14 16 15 16 16 18 19 21
Wind_Direction
292 293 293 292 294 294 291 288 289 290 287 286 285 285 283 282 280 279 272 276 281 287 293 290 290 289 283 279 282 283 298 319 336 340 18 30 55 128 139 96 101 104 82 80 84
288 289 289 293 291 291 292 290 287 289 288 287 287 286 285 285 281 272 275 278 279 283 283 285 282 282 279 276 275 281 307 320 293 318 349 355 14 87 64 71 65 93 61 87 96
279 285 290 287 290 291 289 289 289 287 289 287 287 287 286 287 280 276 284 275 279 275 277 276 279 279 273 277 277 284 296 295 300 315 316 323 321 61 45 76 80 48 71 94 99
296 277 283 287 286 286 288 287 286 288 288 288 287 287 287 283 268 286 288 279 276 272 271 275 276 269 274 276 276 285 282 279 300 308 312 309 325 45 61 194 70 116 58 96 95
294 288 285 276 282 285 283 286 285 285 287 288 287 287 284 274 270 286 294 284 275 269 266 268 267 269 270 278 278 280 281 288 290 300 307 323 6 281 225 221 199 191 98 101 96
293 293 284 281 274 281 282 282 285 284 284 286 287 287 277 267 287 285 282 282 274 268 264 265 272 275 274 277 277 285 288 285 290 298 316 320 319 334 0 22 45 45 41 74 95
293 294 286 280 281 277 278 280 282 284 284 284 285 284 274 267 284 283 279 274 275 269 267 265 276 272 278 280 282 285 285 283 290 303 314 324 312 340 48 37 18 27 34 46 65
292 291 288 286 277 282 277 277 282 282 284 283 283 279 270 281 276 276 275 275 273 270 274 269 277 274 278 283 287 288 294 294 301 306 310 314 320 318 345 0 2 17 13 20 41
286 289 286 283 277 277 276 278 279 281 282 283 279 274 270 283 267 268 269 270 270 270 276 276 274 272 275 276 280 283 284 289 299 304 313 315 318 328 340 342 336 342 354 9 18
285 283 285 285 286 263 266 276 278 280 280 279 274 271 269 270 270 262 264 264 269 265 268 268 269 268 270 268 272 277 280 285 288 302 305 307 304 303 299 318 330 338 345 357 18
283 285 281 283 280 264 260 269 269 276 269 259 267 265 275 276 272 261 257 253 264 261 258 261 261 259 263 263 276 282 283 285 293 299 301 301 295 299 306 316 323 328 341 359 15
278 280 280 281 282 269 253 258 267 278 270 264 261 263 271 267 266 256 251 252 254 255 258 261 260 264 269 267 269 273 277 281 288 295 297 297 292 293 306 321 328 335 352 4 24
271 275 279 276 281 270 251 258 269 269 273 269 265 258 257 258 261 248 240 255 254 252 250 257 271 267 262 267 267 273 274 279 285 293 294 297 295 303 318 333 341 347 358 7 28
266 269 273 275 274 266 256 254 268 278 269 267 267 262 248 256 258 251 239 254 256 251 253 262 265 267 260 265 269 271 280 280 283 289 287 300 292 296 306 314 328 338 340 346 13
267 262 266 266 265 263 266 245 252 278 259 267 263 267 249 241 251 248 242 253 250 251 253 259 263 258 262 266 267 274 283 281 285 285 289 289 293 297 307 311 315 326 337 344 8
265 257 259 264 259 260 254 237 264 249 254 258 261 254 245 244 249 248 239 255 258 255 259 260 269 265 264 272 266 274 281 288 290 288 283 285 286 294 300 306 314 323 329 333 351
261 257 251 256 255 255 253 238 245 243 249 248 250 250 245 242 242 242 233 238 242 246 249 257 260 266 266 262 267 269 270 275 278 278 281 291 287 291 303 308 312 317 326 333 356
258 256 249 251 253 250 241 241 244 241 239 247 246 245 246 243 245 242 236 238 244 249 247 248 254 253 258 262 262 258 265 269 275 277 283 289 287 295 304 310 318 324 326 333 337
257 254 249 247 247 243 242 240 239 241 240 240 240 242 247 244 248 241 242 243 242 241 248 249 254 260 259 261 261 261 262 273 278 284 284 285 291 300 309 314 318 323 327 326 333
251 251 247 239 238 241 238 240 246 242 240 236 240 242 237 235 241 239 239 247 246 240 253 256 257 258 260 261 263 264 262 265 271 274 277 284 285 289 298 303 314 321 326 329 323
247 248 245 230 232 237 233 237 235 246 244 238 238 237 238 236 241 245 250 256 242 241 243 250 257 259 257 253 253 259 259 266 271 273 275 281 286 297 293 307 320 330 334 338 332
241 240 240 218 229 235 233 233 240 237 244 243 242 241 237 235 238 245 248 253 248 235 237 243 256 254 257 265 263 261 260 260 263 270 273 280 285 299 299 310 324 329 332 332 334
239 240 242 220 232 233 233 234 237 235 239 237 241 241 244 237 243 244 245 249 246 233 230 229 249 251 257 262 263 259 259 260 268 273 270 272 282 282 290 300 313 320 328 333 332
237 235 241 228 235 232 231 230 232 238 233 240 239 243 236 234 243 237 241 249 245 242 241 234 250 252 252 263 257 258 255 254 259 264 268 271 279 268 271 285 298 313 321 324 324
230 232 241 226 228 229 230 231 227 232 232 228 235 237 234 235 238 238 238 243 246 244 245 245 251 254 261 264 261 263 254 245 246 255 264 271 274 268 263 276 291 303 310 314 315
231 232 237 237 228 229 227 230 228 226 231 231 232 228 231 234 234 233 234 237 238 241 239 246 255 252 256 262 263 262 262 251 252 257 264 276 275 280 285 282 290 298 305 309 312
230 234 240 236 231 230 228 227 227 225 230 232 230 233 236 240 245 244 245 246 248 237 239 240 253 250 251 259 263 261 255 255 259 261 258 263 274 280 280 281 288 297 304 308 312